| time (UTC) | temp F | wind direction | speed MPH | gust MPH | rain 1hr in | rain 24hr in | rain mn in | humidity % | barometer mb |
| 20260505102011 | 59 | 101 | 1.0 | 5.0 | 0.00 | 0.00 | 0.00 | 62 | 1011.4 |
| 20260505101535 | 59 | 0 | 1.0 | 4.0 | 0.00 | 0.00 | 0.00 | 63 | 1011.4 |
| 20260505101008 | 59 | 0 | 0.0 | 6.0 | 0.00 | 0.00 | 0.00 | 63 | 1011.4 |
| 20260505100511 | 59 | 0 | 0.0 | 6.0 | 0.00 | 0.00 | 0.00 | 63 | 1011.4 |
| 20260505100038 | 59 | 211 | 0.0 | 4.0 | 0.00 | 0.00 | 0.00 | 64 | 1011.3 |
| 20260505095510 | 59 | 0 | 0.0 | 1.0 | 0.00 | 0.00 | 0.00 | 64 | 1011.2 |
| 20260505095015 | 59 | 0 | 0.0 | 2.0 | 0.00 | 0.00 | 0.00 | 64 | 1011.3 |
| 20260505094528 | 58 | 0 | 0.0 | 2.0 | 0.00 | 0.00 | 0.00 | 64 | 1011.3 |
| 20260505094009 | 58 | 0 | 0.0 | 2.0 | 0.00 | 0.00 | 0.00 | 64 | 1011.3 |
| 20260505093511 | 59 | 0 | 0.0 | 1.0 | 0.00 | 0.00 | 0.00 | 65 | 1011.2 |
| 20260505093031 | 59 | 0 | 0.0 | 2.0 | 0.00 | 0.00 | 0.00 | 64 | 1011.2 |
| 20260505092511 | 59 | 0 | 0.0 | 2.0 | 0.00 | 0.00 | 0.00 | 64 | 1011.2 |
| 20260505092011 | 59 | 0 | 0.0 | 2.0 | 0.00 | 0.00 | 0.00 | 64 | 1011.1 |
| 20260505091534 | 59 | 0 | 0.0 | 4.0 | 0.00 | 0.00 | 0.00 | 65 | 1010.9 |
| 20260505091010 | 59 | 245 | 0.0 | 4.0 | 0.00 | 0.00 | 0.00 | 65 | 1010.9 |
| 20260505090511 | 59 | 0 | 0.0 | 3.0 | 0.00 | 0.00 | 0.00 | 65 | 1010.9 |
| 20260505090027 | 59 | 0 | 0.0 | 4.0 | 0.00 | 0.00 | 0.00 | 65 | 1011.0 |
| 20260505085511 | 59 | 0 | 0.0 | 8.0 | 0.00 | 0.00 | 0.00 | 65 | 1011.0 |
| 20260505085013 | 59 | 217 | 0.0 | 8.0 | 0.00 | 0.00 | 0.00 | 65 | 1011.0 |
| 20260505084528 | 59 | 244 | 1.0 | 8.0 | 0.00 | 0.00 | 0.00 | 66 | 1011.0 |
| 20260505084010 | 59 | 0 | 0.0 | 3.0 | 0.00 | 0.00 | 0.00 | 67 | 1011.1 |
| 20260505083514 | 59 | 0 | 0.0 | 8.0 | 0.00 | 0.00 | 0.00 | 67 | 1011.0 |
| 20260505083039 | 59 | 0 | 0.0 | 8.0 | 0.00 | 0.00 | 0.00 | 67 | 1011.1 |
| 20260505082510 | 59 | 0 | 0.0 | 2.0 | 0.00 | 0.00 | 0.00 | 67 | 1011.1 |
| 20260505082012 | 59 | 0 | 0.0 | 2.0 | 0.00 | 0.00 | 0.00 | 66 | 1011.1 |
| 20260505081532 | 59 | 0 | 0.0 | 1.0 | 0.00 | 0.00 | 0.00 | 66 | 1011.1 |
| 20260505081010 | 59 | 0 | 0.0 | 0.0 | 0.00 | 0.00 | 0.00 | 65 | 1011.0 |
| 20260505080510 | 60 | 0 | 0.0 | 6.0 | 0.00 | 0.00 | 0.00 | 65 | 1011.0 |
| 20260505080041 | 60 | 0 | 0.0 | 6.0 | 0.00 | 0.00 | 0.00 | 65 | 1011.0 |
| 20260505075511 | 60 | 108 | 0.0 | 6.0 | 0.00 | 0.00 | 0.00 | 65 | 1011.0 |
| 20260505075011 | 59 | 0 | 0.0 | 3.0 | 0.00 | 0.00 | 0.00 | 65 | 1011.0 |
| 20260505074529 | 59 | 127 | 0.0 | 3.0 | 0.00 | 0.00 | 0.00 | 66 | 1011.0 |
| 20260505074011 | 59 | 115 | 0.0 | 4.0 | 0.00 | 0.00 | 0.00 | 66 | 1011.1 |
| 20260505073511 | 59 | 0 | 0.0 | 4.0 | 0.00 | 0.00 | 0.00 | 67 | 1010.9 |
| 20260505073027 | 59 | 109 | 0.0 | 4.0 | 0.00 | 0.00 | 0.00 | 67 | 1010.9 |
| 20260505072514 | 58 | 0 | 1.0 | 4.0 | 0.00 | 0.00 | 0.00 | 67 | 1010.9 |
| 20260505072009 | 58 | 127 | 0.0 | 1.0 | 0.00 | 0.00 | 0.00 | 68 | 1010.9 |
| 20260505071538 | 59 | 0 | 0.0 | 1.0 | 0.00 | 0.00 | 0.00 | 68 | 1010.8 |
| 20260505071013 | 59 | 0 | 0.0 | 1.0 | 0.00 | 0.00 | 0.00 | 67 | 1010.9 |
| 20260505070511 | 59 | 0 | 0.0 | 1.0 | 0.00 | 0.00 | 0.00 | 68 | 1010.8 |
| 20260505070030 | 58 | 0 | 0.0 | 1.0 | 0.00 | 0.00 | 0.00 | 67 | 1010.9 |
| 20260505065511 | 58 | 0 | 0.0 | 0.0 | 0.00 | 0.00 | 0.00 | 68 | 1010.8 |
| 20260505065015 | 58 | 0 | 0.0 | 0.0 | 0.00 | 0.00 | 0.00 | 68 | 1010.8 |
| 20260505064527 | 59 | 0 | 0.0 | 0.0 | 0.00 | 0.00 | 0.00 | 67 | 1010.7 |
| 20260505064013 | 59 | 0 | 0.0 | 0.0 | 0.00 | 0.00 | 0.00 | 68 | 1010.8 |
| 20260505063511 | 59 | 0 | 0.0 | 0.0 | 0.00 | 0.00 | 0.00 | 67 | 1010.8 |
| 20260505063042 | 59 | 0 | 0.0 | 2.0 | 0.00 | 0.00 | 0.00 | 67 | 1010.7 |
| 20260505062511 | 59 | 0 | 0.0 | 2.0 | 0.00 | 0.00 | 0.00 | 67 | 1010.7 |
| 20260505062017 | 59 | 0 | 0.0 | 0.0 | 0.00 | 0.00 | 0.00 | 66 | 1010.7 |
| 20260505061534 | 59 | 0 | 0.0 | 1.0 | 0.00 | 0.00 | 0.00 | 66 | 1010.8 |
| 20260505061008 | 59 | 0 | 0.0 | 1.0 | 0.00 | 0.00 | 0.00 | 66 | 1010.8 |
| 20260505060513 | 59 | 0 | 0.0 | 0.0 | 0.00 | 0.00 | 0.00 | 66 | 1010.7 |
| 20260505060029 | 59 | 0 | 0.0 | 1.0 | 0.00 | 0.00 | 0.00 | 66 | 1010.9 |
| 20260505055512 | 59 | 0 | 0.0 | 1.0 | 0.00 | 0.00 | 0.00 | 67 | 1010.9 |
| 20260505055012 | 59 | 0 | 0.0 | 1.0 | 0.00 | 0.00 | 0.00 | 66 | 1010.9 |
| 20260505054541 | 59 | 0 | 0.0 | 0.0 | 0.00 | 0.00 | 0.00 | 66 | 1011.0 |
| 20260505054015 | 60 | 0 | 0.0 | 0.0 | 0.00 | 0.00 | 0.00 | 65 | 1010.8 |
| 20260505053515 | 60 | 0 | 0.0 | 0.0 | 0.00 | 0.00 | 0.00 | 64 | 1010.8 |
| 20260505053028 | 60 | 0 | 0.0 | 0.0 | 0.00 | 0.00 | 0.00 | 64 | 1010.8 |
| 20260505052511 | 60 | 0 | 0.0 | 0.0 | 0.00 | 0.00 | 0.00 | 63 | 1010.9 |
| 20260505052011 | 61 | 0 | 0.0 | 0.0 | 0.00 | 0.00 | 0.00 | 63 | 1010.9 |
| 20260505051538 | 61 | 0 | 0.0 | 0.0 | 0.00 | 0.00 | 0.00 | 63 | 1011.0 |
| 20260505051009 | 61 | 0 | 0.0 | 0.0 | 0.00 | 0.00 | 0.00 | 63 | 1011.0 |
| 20260505050513 | 62 | 0 | 0.0 | 0.0 | 0.00 | 0.00 | 0.00 | 62 | 1011.1 |
| 20260505041549 | 63 | 0 | 0.0 | 2.0 | 0.00 | 0.00 | 0.00 | 58 | 1011.1 |
| 20260505041011 | 63 | 0 | 0.0 | 2.0 | 0.00 | 0.00 | 0.00 | 57 | 1011.1 |
| 20260505040509 | 63 | 0 | 0.0 | 1.0 | 0.00 | 0.00 | 0.00 | 57 | 1011.0 |
| 20260505040030 | 63 | 0 | 0.0 | 1.0 | 0.00 | 0.00 | 0.00 | 56 | 1010.9 |
| 20260505035508 | 63 | 0 | 0.0 | 0.0 | 0.00 | 0.00 | 0.00 | 56 | 1010.9 |
| 20260505035014 | 63 | 0 | 0.0 | 1.0 | 0.00 | 0.00 | 0.00 | 56 | 1011.0 |
| 20260505034528 | 64 | 0 | 0.0 | 1.0 | 0.00 | 0.00 | 0.00 | 56 | 1010.9 |
| 20260505034007 | 64 | 0 | 0.0 | 1.0 | 0.00 | 0.00 | 0.00 | 55 | 1010.9 |
| 20260505033509 | 64 | 0 | 0.0 | 1.0 | 0.00 | 0.00 | 0.00 | 55 | 1010.9 |
| 20260505033028 | 64 | 0 | 0.0 | 0.0 | 0.00 | 0.00 | 0.00 | 55 | 1011.0 |
| 20260505032517 | 64 | 0 | 0.0 | 0.0 | 0.00 | 0.00 | 0.00 | 54 | 1011.0 |
| 20260505032008 | 64 | 0 | 0.0 | 0.0 | 0.00 | 0.00 | 0.00 | 54 | 1011.0 |
| 20260505031534 | 65 | 0 | 0.0 | 1.0 | 0.00 | 0.00 | 0.00 | 53 | 1011.0 |
| 20260505031008 | 65 | 0 | 0.0 | 1.0 | 0.00 | 0.00 | 0.00 | 53 | 1011.0 |
| 20260505030508 | 65 | 0 | 0.0 | 2.0 | 0.00 | 0.00 | 0.00 | 53 | 1010.9 |
| 20260505030028 | 65 | 0 | 0.0 | 2.0 | 0.00 | 0.00 | 0.00 | 52 | 1010.9 |
| 20260505025514 | 65 | 0 | 0.0 | 1.0 | 0.00 | 0.00 | 0.00 | 52 | 1010.8 |
| 20260505025009 | 65 | 0 | 0.0 | 1.0 | 0.00 | 0.00 | 0.00 | 52 | 1010.8 |
| 20260505024527 | 66 | 0 | 0.0 | 1.0 | 0.00 | 0.00 | 0.00 | 51 | 1010.8 |
| 20260505024010 | 66 | 0 | 0.0 | 1.0 | 0.00 | 0.00 | 0.00 | 51 | 1010.8 |
| 20260505023511 | 66 | 0 | 0.0 | 3.0 | 0.00 | 0.00 | 0.00 | 51 | 1010.9 |
| 20260505023031 | 66 | 0 | 0.0 | 4.0 | 0.00 | 0.00 | 0.00 | 51 | 1010.8 |
| 20260505022511 | 66 | 0 | 0.0 | 4.0 | 0.00 | 0.00 | 0.00 | 50 | 1010.8 |
| 20260505022014 | 66 | 0 | 0.0 | 0.0 | 0.00 | 0.00 | 0.00 | 50 | 1010.8 |
| 20260505021530 | 66 | 0 | 0.0 | 0.0 | 0.00 | 0.00 | 0.00 | 50 | 1010.8 |
| 20260505021010 | 66 | 0 | 0.0 | 1.0 | 0.00 | 0.00 | 0.00 | 49 | 1010.7 |
| 20260505020509 | 66 | 0 | 0.0 | 1.0 | 0.00 | 0.00 | 0.00 | 49 | 1010.6 |
| 20260505020038 | 67 | 0 | 0.0 | 1.0 | 0.00 | 0.00 | 0.00 | 49 | 1010.5 |
| 20260505015508 | 67 | 0 | 0.0 | 1.0 | 0.00 | 0.00 | 0.00 | 49 | 1010.6 |
| 20260505015008 | 67 | 0 | 0.0 | 0.0 | 0.00 | 0.00 | 0.00 | 48 | 1010.6 |
| 20260505014528 | 67 | 0 | 0.0 | 0.0 | 0.00 | 0.00 | 0.00 | 47 | 1010.6 |
| 20260505014010 | 68 | 0 | 0.0 | 0.0 | 0.00 | 0.00 | 0.00 | 47 | 1010.4 |
| 20260505013513 | 68 | 0 | 0.0 | 1.0 | 0.00 | 0.00 | 0.00 | 46 | 1010.4 |
| 20260505013027 | 68 | 0 | 0.0 | 1.0 | 0.00 | 0.00 | 0.00 | 46 | 1010.4 |
| 20260505012507 | 68 | 0 | 0.0 | 0.0 | 0.00 | 0.00 | 0.00 | 46 | 1010.2 |
| 20260505012008 | 69 | 0 | 0.0 | 0.0 | 0.00 | 0.00 | 0.00 | 46 | 1010.4 |
| 20260505011528 | 69 | 0 | 0.0 | 2.0 | 0.00 | 0.00 | 0.00 | 45 | 1010.2 |
| 20260505011008 | 69 | 0 | 0.0 | 2.0 | 0.00 | 0.00 | 0.00 | 45 | 1010.2 |
| 20260505010508 | 69 | 0 | 0.0 | 2.0 | 0.00 | 0.00 | 0.00 | 44 | 1010.1 |
| 20260505010030 | 70 | 0 | 0.0 | 1.0 | 0.00 | 0.00 | 0.00 | 44 | 1010.2 |
| 20260505005508 | 70 | 0 | 0.0 | 2.0 | 0.00 | 0.00 | 0.00 | 44 | 1010.2 |
| 20260505005009 | 70 | 0 | 0.0 | 3.0 | 0.00 | 0.00 | 0.00 | 43 | 1010.1 |
| 20260505004528 | 70 | 127 | 0.0 | 3.0 | 0.00 | 0.00 | 0.00 | 43 | 1010.0 |
| 20260505004008 | 70 | 0 | 0.0 | 2.0 | 0.00 | 0.00 | 0.00 | 43 | 1010.0 |
| 20260505003511 | 71 | 231 | 0.0 | 4.0 | 0.00 | 0.00 | 0.00 | 42 | 1010.0 |
| 20260505003030 | 71 | 0 | 0.0 | 4.0 | 0.00 | 0.00 | 0.00 | 41 | 1010.0 |
| 20260505002512 | 71 | 0 | 0.0 | 3.0 | 0.00 | 0.00 | 0.00 | 42 | 1010.0 |
| 20260505002012 | 71 | 0 | 0.0 | 3.0 | 0.00 | 0.00 | 0.00 | 41 | 1010.0 |
| 20260505001528 | 72 | 150 | 0.0 | 9.0 | 0.00 | 0.00 | 0.00 | 41 | 1009.9 |
| 20260505001011 | 72 | 0 | 0.0 | 9.0 | 0.00 | 0.00 | 0.00 | 40 | 1010.0 |
| 20260505000508 | 72 | 0 | 0.0 | 4.0 | 0.00 | 0.00 | 0.00 | 40 | 1009.9 |
| 20260505000031 | 72 | 0 | 0.0 | 9.0 | 0.00 | 0.00 | 0.00 | 40 | 1010.0 |
| 20260504235510 | 72 | 0 | 0.0 | 9.0 | 0.00 | 0.00 | 0.00 | 39 | 1010.0 |
| 20260504235011 | 72 | 0 | 0.0 | 7.0 | 0.00 | 0.00 | 0.00 | 39 | 1009.9 |
| 20260504234533 | 72 | 188 | 0.0 | 7.0 | 0.00 | 0.00 | 0.00 | 39 | 1009.9 |
| 20260504234010 | 72 | 0 | 1.0 | 7.0 | 0.00 | 0.00 | 0.00 | 39 | 1009.9 |
| 20260504233508 | 72 | 0 | 0.0 | 2.0 | 0.00 | 0.00 | 0.00 | 38 | 1009.8 |
| 20260504233031 | 72 | 0 | 0.0 | 3.0 | 0.00 | 0.00 | 0.00 | 38 | 1009.8 |
| 20260504232512 | 73 | 0 | 0.0 | 3.0 | 0.00 | 0.00 | 0.00 | 38 | 1009.7 |
| 20260504232010 | 73 | 98 | 1.0 | 12.0 | 0.00 | 0.00 | 0.00 | 37 | 1009.7 |
| 20260504231532 | 73 | 0 | 1.0 | 12.0 | 0.00 | 0.00 | 0.00 | 37 | 1009.6 |
| 20260504231011 | 73 | 347 | 1.0 | 6.0 | 0.00 | 0.00 | 0.00 | 37 | 1009.7 |
| 20260504230508 | 73 | 0 | 0.0 | 9.0 | 0.00 | 0.00 | 0.00 | 37 | 1009.6 |
| 20260504230030 | 73 | 0 | 0.0 | 9.0 | 0.00 | 0.00 | 0.00 | 37 | 1009.7 |
| 20260504225510 | 73 | 69 | 1.0 | 9.0 | 0.00 | 0.00 | 0.00 | 36 | 1009.6 |
| 20260504225009 | 74 | 215 | 2.0 | 8.0 | 0.00 | 0.00 | 0.00 | 36 | 1009.6 |
| 20260504224535 | 74 | 110 | 1.0 | 6.0 | 0.00 | 0.00 | 0.00 | 36 | 1009.7 |
| 20260504224009 | 74 | 0 | 1.0 | 6.0 | 0.00 | 0.00 | 0.00 | 36 | 1009.7 |
| 20260504223511 | 74 | 0 | 1.0 | 5.0 | 0.00 | 0.00 | 0.00 | 36 | 1009.8 |
| 20260504223032 | 74 | 112 | 1.0 | 9.0 | 0.00 | 0.00 | 0.00 | 36 | 1009.8 |
| 20260504222510 | 74 | 119 | 3.0 | 9.0 | 0.00 | 0.00 | 0.00 | 35 | 1009.7 |
| 20260504222012 | 74 | 117 | 1.0 | 9.0 | 0.00 | 0.00 | 0.00 | 35 | 1009.6 |
| 20260504221530 | 75 | 91 | 2.0 | 7.0 | 0.00 | 0.00 | 0.00 | 35 | 1009.6 |
| 20260504221009 | 75 | 304 | 2.0 | 11.0 | 0.00 | 0.00 | 0.00 | 34 | 1009.7 |
| 20260504220512 | 75 | 86 | 2.0 | 11.0 | 0.00 | 0.00 | 0.00 | 34 | 1009.7 |
| 20260504220030 | 76 | 331 | 4.0 | 11.0 | 0.00 | 0.00 | 0.00 | 33 | 1009.7 |
| 20260504215512 | 76 | 59 | 1.0 | 11.0 | 0.00 | 0.00 | 0.00 | 35 | 1009.7 |
| 20260504215011 | 76 | 109 | 3.0 | 11.0 | 0.00 | 0.00 | 0.00 | 32 | 1009.5 |
| 20260504214539 | 77 | 101 | 3.0 | 6.0 | 0.00 | 0.00 | 0.00 | 32 | 1009.6 |
| 20260504214014 | 76 | 113 | 0.0 | 7.0 | 0.00 | 0.00 | 0.00 | 35 | 1009.6 |
| 20260504213510 | 76 | 174 | 1.0 | 11.0 | 0.00 | 0.00 | 0.00 | 33 | 1009.6 |
| 20260504213030 | 77 | 154 | 4.0 | 11.0 | 0.00 | 0.00 | 0.00 | 31 | 1009.7 |
| 20260504212512 | 78 | 53 | 1.0 | 10.0 | 0.00 | 0.00 | 0.00 | 32 | 1009.5 |
| 20260504212013 | 77 | 78 | 1.0 | 7.0 | 0.00 | 0.00 | 0.00 | 32 | 1009.6 |
| 20260504211530 | 77 | 0 | 1.0 | 6.0 | 0.00 | 0.00 | 0.00 | 34 | 1009.6 |
| 20260504211010 | 76 | 97 | 1.0 | 8.0 | 0.00 | 0.00 | 0.00 | 33 | 1009.7 |
| 20260504210517 | 76 | 187 | 2.0 | 8.0 | 0.00 | 0.00 | 0.00 | 33 | 1009.7 |
| 20260504210030 | 76 | 242 | 2.0 | 6.0 | 0.00 | 0.00 | 0.00 | 31 | 1009.7 |
| 20260504205511 | 77 | 99 | 0.0 | 10.0 | 0.00 | 0.00 | 0.00 | 32 | 1009.5 |
| 20260504205014 | 77 | 237 | 1.0 | 10.0 | 0.00 | 0.00 | 0.00 | 30 | 1009.6 |
| 20260504204530 | 77 | 163 | 3.0 | 10.0 | 0.00 | 0.00 | 0.00 | 32 | 1009.7 |
| 20260504204010 | 77 | 168 | 2.0 | 7.0 | 0.00 | 0.00 | 0.00 | 30 | 1009.7 |
| 20260504203509 | 78 | 0 | 1.0 | 6.0 | 0.00 | 0.00 | 0.00 | 31 | 1009.8 |
| 20260504203030 | 78 | 219 | 1.0 | 9.0 | 0.00 | 0.00 | 0.00 | 32 | 1009.8 |
| 20260504202512 | 78 | 248 | 2.0 | 9.0 | 0.00 | 0.00 | 0.00 | 30 | 1009.8 |
| 20260504202013 | 78 | 309 | 2.0 | 7.0 | 0.00 | 0.00 | 0.00 | 31 | 1009.9 |
| 20260504201529 | 78 | 0 | 1.0 | 8.0 | 0.00 | 0.00 | 0.00 | 32 | 1010.0 |
| 20260504201013 | 78 | 219 | 1.0 | 8.0 | 0.00 | 0.00 | 0.00 | 30 | 1010.2 |
| 20260504200514 | 78 | 0 | 1.0 | 9.0 | 0.00 | 0.00 | 0.00 | 33 | 1010.2 |
| 20260504200035 | 77 | 34 | 1.0 | 9.0 | 0.00 | 0.00 | 0.00 | 31 | 1010.2 |
| 20260504195511 | 77 | 323 | 1.0 | 9.0 | 0.00 | 0.00 | 0.00 | 35 | 1010.2 |
| 20260504195011 | 77 | 91 | 2.0 | 9.0 | 0.00 | 0.00 | 0.00 | 31 | 1010.2 |
| 20260504194531 | 77 | 236 | 2.0 | 8.0 | 0.00 | 0.00 | 0.00 | 32 | 1010.3 |
| 20260504194010 | 76 | 129 | 1.0 | 8.0 | 0.00 | 0.00 | 0.00 | 34 | 1010.3 |
| 20260504193514 | 76 | 341 | 2.0 | 8.0 | 0.00 | 0.00 | 0.00 | 32 | 1010.4 |
| 20260504193030 | 76 | 69 | 1.0 | 8.0 | 0.00 | 0.00 | 0.00 | 32 | 1010.6 |
| 20260504192514 | 76 | 169 | 1.0 | 7.0 | 0.00 | 0.00 | 0.00 | 33 | 1010.7 |
| 20260504192010 | 76 | 136 | 2.0 | 8.0 | 0.00 | 0.00 | 0.00 | 32 | 1010.8 |
| 20260504191533 | 76 | 210 | 1.0 | 9.0 | 0.00 | 0.00 | 0.00 | 33 | 1010.9 |
| 20260504191013 | 76 | 108 | 2.0 | 9.0 | 0.00 | 0.00 | 0.00 | 33 | 1011.1 |
| 20260504190517 | 76 | 337 | 1.0 | 9.0 | 0.00 | 0.00 | 0.00 | 32 | 1011.0 |
| 20260504190028 | 76 | 60 | 2.0 | 8.0 | 0.00 | 0.00 | 0.00 | 33 | 1011.2 |
| 20260504185510 | 76 | 0 | 2.0 | 8.0 | 0.00 | 0.00 | 0.00 | 33 | 1011.2 |
| 20260504185009 | 76 | 304 | 2.0 | 5.0 | 0.00 | 0.00 | 0.00 | 32 | 1011.2 |
| 20260504184536 | 75 | 268 | 1.0 | 8.0 | 0.00 | 0.00 | 0.00 | 37 | 1011.4 |
| 20260504184012 | 75 | 265 | 1.0 | 8.0 | 0.00 | 0.00 | 0.00 | 35 | 1011.4 |
| 20260504183514 | 74 | 271 | 2.0 | 8.0 | 0.00 | 0.00 | 0.00 | 35 | 1011.5 |
| 20260504183034 | 74 | 311 | 1.0 | 7.0 | 0.00 | 0.00 | 0.00 | 33 | 1011.5 |
| 20260504182508 | 74 | 71 | 2.0 | 9.0 | 0.00 | 0.00 | 0.00 | 36 | 1011.7 |
| 20260504182016 | 74 | 223 | 2.0 | 9.0 | 0.00 | 0.00 | 0.00 | 35 | 1011.7 |
| 20260504181532 | 74 | 257 | 3.0 | 9.0 | 0.00 | 0.00 | 0.00 | 37 | 1011.9 |
| 20260504181010 | 73 | 261 | 2.0 | 6.0 | 0.00 | 0.00 | 0.00 | 33 | 1011.8 |
| 20260504180511 | 73 | 340 | 2.0 | 11.0 | 0.00 | 0.00 | 0.00 | 36 | 1011.9 |
| 20260504180030 | 73 | 113 | 2.0 | 11.0 | 0.00 | 0.00 | 0.00 | 35 | 1012.0 |
| 20260504175511 | 73 | 250 | 2.0 | 8.0 | 0.00 | 0.00 | 0.00 | 35 | 1012.1 |
| 20260504175008 | 73 | 256 | 2.0 | 7.0 | 0.00 | 0.00 | 0.00 | 35 | 1012.1 |
| 20260504174528 | 73 | 307 | 1.0 | 6.0 | 0.00 | 0.00 | 0.00 | 36 | 1012.2 |
| 20260504174010 | 73 | 217 | 1.0 | 8.0 | 0.00 | 0.00 | 0.00 | 35 | 1012.2 |
| 20260504173514 | 72 | 0 | 1.0 | 8.0 | 0.00 | 0.00 | 0.00 | 37 | 1012.3 |
| 20260504173030 | 72 | 119 | 3.0 | 8.0 | 0.00 | 0.00 | 0.00 | 34 | 1012.4 |
| 20260504172516 | 72 | 0 | 2.0 | 8.0 | 0.00 | 0.00 | 0.00 | 37 | 1012.4 |
| 20260504172011 | 72 | 216 | 2.0 | 8.0 | 0.00 | 0.00 | 0.00 | 33 | 1012.5 |
| 20260504171530 | 72 | 113 | 1.0 | 7.0 | 0.00 | 0.00 | 0.00 | 34 | 1012.7 |
| 20260504171014 | 72 | 133 | 0.0 | 7.0 | 0.00 | 0.00 | 0.00 | 35 | 1012.7 |
| 20260504170508 | 72 | 336 | 0.0 | 6.0 | 0.00 | 0.00 | 0.00 | 37 | 1012.7 |
| 20260504151010 | 67 | 198 | 0.0 | 8.0 | 0.00 | 0.00 | 0.00 | 35 | 1014.0 |
| 20260504150510 | 67 | 333 | 1.0 | 8.0 | 0.00 | 0.00 | 0.00 | 36 | 1013.9 |
| 20260504141019 | 64 | 114 | 1.0 | 6.0 | 0.00 | 0.00 | 0.00 | 42 | 1014.1 |
| 20260504140510 | 63 | 163 | 1.0 | 5.0 | 0.00 | 0.00 | 0.00 | 43 | 1014.1 |
| 20260504130511 | 58 | 143 | 1.0 | 3.0 | 0.00 | 0.00 | 0.00 | 50 | 1014.8 |
| 20260504110510 | 48 | 0 | 0.0 | 1.0 | 0.00 | 0.00 | 0.00 | 68 | 1015.0 |